Regional Weather Roundup
Issued by NWS

Home | Current Version | Previous Version | Graphics & Text | Print | Product List | Glossary Off
Versions: 1 2 3 4 5 6 7 8 9 10 11 12 13 14 15 16 17 18 19 20 21 22 23 24 25 26 27 28 29 30 31 32 33 34 35 36 37 38 39 40 41 42 43 44 45 46 47 48 49 50

000
ASUS43 KMKX 231200
RWRWI

WISCONSIN REGIONAL WEATHER ROUNDUP
NATIONAL WEATHER SERVICE MILWAUKEE/SULLIVAN WI
700 AM CDT SAT JUL 23 2016

NOTE: "FAIR" INDICATES FEW OR NO CLOUDS BELOW 12,000 FEET WITH NO
SIGNIFICANT WEATHER AND/OR OBSTRUCTIONS TO VISIBILITY.

WIZ001-002-006>008-014>016-023>028-231300-
NORTHWEST WISCONSIN

CITY           SKY/WX    TMP DP  RH WIND       PRES   REMARKS
SUPERIOR ARPT  SUNNY     58  58 100 CALM      29.98F
ASHLAND        SUNNY     63  61  93 CALM      30.01R
6HR MIN TEMP:  59; 6HR MAX TEMP:  68;

HAYWARD        SUNNY     68  62  81 N5        30.01F
6HR MIN TEMP:  62; 6HR MAX TEMP:  68;

SIREN          SUNNY     66  64  94 CALM      29.98F
CUMBERLAND     SUNNY     64  63  94 CALM      30.00F
RICE LAKE      SUNNY     65  64  96 CALM      30.01F
CHETEK         SUNNY     70  68  94 S3        29.99F
LADYSMITH      SUNNY     67  66  96 CALM      30.03S
EAU CLAIRE     SUNNY     67  66  97 NE5       29.98S FOG
MENOMONIE      MOSUNNY   67  66  97 CALM      29.99S
NEW RICHMOND   CLOUDY    66  65  97 CALM      29.98S
OSCEOLA        CLOUDY    69  69 100 CALM      29.99F
$$

WIZ003>005-009-010-017-018-231300-
NORTH CENTRAL WISCONSIN

CITY           SKY/WX    TMP DP  RH WIND       PRES   REMARKS
MANITOWISH WTR MOSUNNY   60  60 100 CALM      30.04S
ARBOR VITAE    SUNNY     64  62  94 CALM      30.04S
WOODRUFF       SUNNY     64  62  94 CALM      30.04S
RHINELANDER    MOSUNNY   67  65  93 CALM      30.05S
6HR MIN TEMP:  59; 6HR MAX TEMP:  67;

EAGLE RIVER    SUNNY     59  59 100 CALM      30.03F
LAND O LAKES   SUNNY     58  58 100 CALM      30.06S
PHILLIPS       SUNNY     64  64  99 CALM      30.02F
TOMAHAWK       PTSUNNY   59  58  96 CALM      30.04S
MEDFORD        MOSUNNY   65  65 100 E3        30.02S
MERRILL        MOSUNNY   62  62 100 CALM      30.04R
$$

WIZ029-030-035-036-043>047-231300-
CENTRAL WISCONSIN

CITY           SKY/WX    TMP DP  RH WIND       PRES   REMARKS
WAUSAU         CLOUDY    69  67  93 CALM      30.00S
6HR MIN TEMP:  65; 6HR MAX TEMP:  71;

MOSINEE        SUNNY     70  68  94 CALM      30.02S
MARSHFIELD     SUNNY     70  66  87 E3        30.01S
6HR MIN TEMP:  66; 6HR MAX TEMP:  71;

STEVENS POINT  MOSUNNY   65  63  94 CALM      30.02R
WAUPACA        MOSUNNY   69  69  99 CALM      30.00R
WAUTOMA        SUNNY     67  65  93 CALM      30.00S
6HR MIN TEMP:  64; 6HR MAX TEMP:  69;

WISC RAPIDS    SUNNY     71  67  87 CALM      30.01F
6HR MIN TEMP:  63; 6HR MAX TEMP:  71;

CAMP DOUGLAS   FOG       66  64  94 CALM      29.99S VSB 1/4
$$

WIZ011>013-019>022-031-037>040-048>050-231300-
NORTHEAST WISCONSIN

CITY           SKY/WX    TMP DP  RH WIND       PRES   REMARKS
ANTIGO         MOSUNNY   63  63  99 CALM      30.04S
SHAWANO        MOSUNNY   67  66  95 CALM      29.99S
OCONTO         MOSUNNY  N/A N/A N/A CALM      29.98F
STURGEON BAY   MOSUNNY   72  68  87 CALM      29.98F
6HR MIN TEMP:  68; 6HR MAX TEMP:  72;

GREEN BAY      SUNNY     72  70  93 CALM      29.98F
6HR MIN TEMP:  64; 6HR MAX TEMP:  73;

MANITOWOC      NOT AVBL
APPLETON       MOSUNNY   72  63  73 NE6       29.98F
CLINTONVILLE   SUNNY     64  64 100 CALM      29.99S
OSHKOSH        MOSUNNY   75  69  81 CALM      29.99R
6HR MIN TEMP:  67; 6HR MAX TEMP:  76;

$$

WIZ032>034-041-042-053>061-231300-
SOUTHWEST WISCONSIN

CITY           SKY/WX    TMP DP  RH WIND       PRES   REMARKS
LA CROSSE      CLOUDY    75  73  93 E6        29.96S FOG
6HR MIN TEMP:  75; 6HR MAX TEMP:  79;

SPARTA         MOSUNNY   64  64 100 CALM      29.99S
VIROQUA        PTSUNNY   76  76 100 SE3       30.00F
BOSCOBEL       FOG       77  76  96 CALM      29.96F VSB 1/4
6HR MIN TEMP:  76; 6HR MAX TEMP:  78;

PRAIRIE DU CHI MOSUNNY   76  74  93 SE3       29.96S
PLATTEVILLE    CLOUDY    77  77 100 SE3       30.00S
$$

WIZ056-057-062-063-064-067-068-231300-
SOUTH CENTRAL WISCONSIN

CITY           SKY/WX    TMP DP  RH WIND       PRES   REMARKS
REEDSBURG      FOG       73  73 100 CALM      29.98F VSB<1/4
BARABOO/DELLS  FOG       73  71  95 CALM      29.98F VSB<1/4
LONE ROCK      FOG       75  74  96 CALM      29.98F VSB 1/4
MINERAL POINT  FOG       77  75  94 E3        30.00F VSB<1/4
MADISON        PTSUNNY   76  75  97 CALM      29.98S FOG
6HR MIN TEMP:  72; 6HR MAX TEMP:  77;

MIDDLETON      CLOUDY    74  74 100 CALM      30.00S VSB 3/4
WATERTOWN      FOG       73  73 100 CALM      29.99F VSB 1/4
MONROE         MOSUNNY   77  73  88 CALM      30.00F
JANESVILLE     MOSUNNY   77  75  94 CALM      29.98F
$$

WIZ051-052-058>065-066-070>072-231300-
SOUTHEAST WISCONSIN

CITY           SKY/WX    TMP DP  RH WIND       PRES   REMARKS
MILWAUKEE      MOSUNNY   80  75  84 CALM      29.98F HX  85
6HR MIN TEMP:  74; 6HR MAX TEMP:  80;

WAUKESHA       FOG       72  72 100 CALM      30.01S VSB 1/2
MILWAUKEE/TIMM SUNNY     73  70  88 CALM      29.99F
RACINE         SUNNY     78  75  90 NW3       30.00F HX  81
6HR MIN TEMP:  74; 6HR MAX TEMP:  78;

BURLINGTON     PTSUNNY   73  73  99 CALM      30.00S FOG
KENOSHA        PTSUNNY   77  75  93 CALM      29.99F FOG
6HR MIN TEMP:  73; 6HR MAX TEMP:  77;

FOND DU LAC    FOG       71  69  93 CALM      29.99F VSB 1/4
6HR MIN TEMP:  69; 6HR MAX TEMP:  74;

SHEBOYGAN      SUNNY     73  70  90 SW5       29.98F
6HR MIN TEMP:  67; 6HR MAX TEMP:  73;

WEST BEND      FOG       70  68  94 CALM      30.00S VSB<1/4
JUNEAU         FOG       72  72  99 CALM      30.01S VSB<1/4
$$

LSZ147-162-231300-
LAKE SUPERIOR

STATION/POSITION TIME  TEMP    WIND        PRES    WAVE
                       AIR SEA DIR/SP/G            HT/PER
                 (UTC) (F)     (DEG/KT/KT) (MB)    (FT/S)
W MID LAKE BUOY  1050   63 57  330/  4/  6 1014.9R   0
DEVILS ISLAND    1100   69     230/  5/  5 1015.5F
SAXON HARBOR     1140   64     190/  5/  9 1015.6S
$$

LMZ867-665-643>646-231300-
LAKE MICHIGAN

STATION/POSITION TIME  TEMP    WIND        PRES    WAVE
                       AIR SEA DIR/SP/G            HT/PER
                 (UTC) (F)     (DEG/KT/KT) (MB)    (FT/S)
CHAMBERS ISLAND  1100   65        CALM     1015.2R
S GREEN BAY BUOY 1100   74 74   60/  2/  4   N/A
N MID LAKE BUOY  1050   69 68  250/  4/  4 1014.0R   1
NORTHPORT PIER   1100   72     290/  7/  8 1015.2R
KEWAUNEE LAKESHO 1100   70     300/  4/  5 1014.9R
SHEBOYGAN LAKESH 1100   70     230/  3/  3 1015.5R
PORT WASHINGTON  1140   78     310/  4/  6 1015.9R
MILWAUKEE LAKESH 1110   75     260/  2/  2   N/A
S MID LAKE BUOY  1050   75 73  140/  2/  2 1014.5R   0
KENOSHA   LAKESH 1100   77     300/  2/  5 1015.2R
$$

TC  - TEMPERATURE IN CELSIUS
VSB - VISIBILITY IN STATUTE MILES
WCI - WIND CHILL INDEX
HX  - HEAT INDEX




USA.gov is the U.S. government's official web portal to all federal, state and local government web resources and services.